Terminal Aerodrome Forecast
Issued by NWS Omaha/Valley, NE

Home | Current Version | Previous Version | Text Only | Print | Product List | Glossary On
Versions: 1 2 3 4 5 6 7 8 9 10 11 12 13 14 15 16 17 18 19 20 21
000
FTUS43 KOAX 180749 AAA
TAFOFK
TAF AMD
KOFK 180749Z 1808/1906 34012KT P6SM VCSH SCT040 OVC045
     FM181200 33015G23KT P6SM BKN100
     FM181800 32023G32KT P6SM FEW250
     FM190000 32010KT P6SM SKC=

USA.gov is the U.S. government's official web portal to all federal, state and local government web resources and services.